Opa Locka, FL

5:45 AM EST on December 08, 2019 (GMT -0500)
Opa Locka

Weather History for KOPF - November, 2019

Change the Weather History Date:

Tuesday, November 12, 2019

  Actual Average Record
Temperature  
Mean Temperature 79 °F -  
Max Temperature 87 °F 80 °F 89 °F (2002)
Min Temperature 71 °F 63 °F 48 °F (1956)
Cooling Degree Days 14    
Growing Degree Days 29 (Base 50)    
Moisture  
Dew Point 65 °F    
Average Humidity 66    
Maximum Humidity 87    
Minimum Humidity 43    
Precipitation  
Precipitation 0.00 in - - ()
Sea Level Pressure  
Sea Level Pressure 29.95 in    
Wind  
Wind Speed 4 mph ()    
Max Wind Speed 10 mph    
Max Gust Speed -    
Visibility 10.0 miles    
Events Rain    
Averages and records for this station are not official NWS values.
T = Trace of Precipitation, MM = Missing Value Source: Averaged Metar Reports

Daily Weather History Graph

Daily Weather History Graph

Search for Another Location

Airport or City:

Astronomy

Nov. 12, 2019 Rise Set
Actual Time 6:36 AM EST 5:33 PM EST
Civil Twilight 6:12 AM EST 5:57 PM EST
Nautical Twilight 5:45 AM EST 6:25 PM EST
Astronomical Twilight 5:17 AM EST 6:52 PM EST
Moon 5:56 PM EST (11/12) 6:31 AM EST (11/12)
Length of Visible Light 11h 44m
Length of Day
10h 56m
Full, 100% of the Moon is Illuminated
Nov 12
Full
Nov 19
Last Quarter
Nov 26
New
Dec 4
First Quarter
Dec 12
Full

Hourly Weather History & Observations

Time (EST) Temp. Heat Index Dew Point Humidity Pressure Visibility Wind Dir Wind Speed Gust Speed Precip Events Conditions
12:53 AM 73.0 °F - 66.0 °F 79% 30.00 in 10.0 mi NNW 3.5 mph - N/A   Partly Cloudy
1:53 AM 72.0 °F - 64.9 °F 78% 29.98 in 10.0 mi NNW 3.5 mph - N/A   Partly Cloudy
2:53 AM 73.0 °F - 66.9 °F 81% 29.97 in 10.0 mi NNW 3.5 mph - 0.00 in Rain Light Rain
3:53 AM 72.0 °F - 66.9 °F 84% 29.95 in 10.0 mi WNW 3.5 mph - 0.00 in   Mostly Cloudy
4:53 AM 72.0 °F - 68.0 °F 87% 29.96 in 10.0 mi NNW 5.8 mph - N/A   Overcast
5:53 AM 72.0 °F - 66.0 °F 81% 29.96 in 10.0 mi Calm Calm - N/A   Partly Cloudy
6:53 AM 71.1 °F - 66.0 °F 84% 29.97 in 10.0 mi Calm Calm - N/A   Clear
7:53 AM 75.9 °F - 69.1 °F 79% 29.98 in 10.0 mi Calm Calm - N/A   Mostly Cloudy
8:53 AM 79.0 °F - 69.1 °F 72% 29.99 in 10.0 mi Calm Calm - N/A   Mostly Cloudy
9:53 AM 82.9 °F 84.6 °F 64.9 °F 54% 30.00 in 10.0 mi North - - N/A   Scattered Clouds
10:53 AM 84.0 °F 84.9 °F 63.0 °F 49% 29.98 in 10.0 mi Variable 6.9 mph - N/A   Scattered Clouds
11:53 AM 84.9 °F 86.1 °F 64.0 °F 49% 29.97 in 10.0 mi WSW 8.1 mph - N/A   Mostly Cloudy
12:53 PM 84.9 °F 85.9 °F 63.0 °F 48% 29.94 in 10.0 mi WSW 10.4 mph - N/A   Partly Cloudy
1:53 PM 87.1 °F 87.5 °F 62.1 °F 43% 29.91 in 10.0 mi NW 9.2 mph - N/A   Clear
2:53 PM 86.0 °F 86.1 °F 61.0 °F 43% 29.90 in 10.0 mi West 8.1 mph - N/A   Clear
3:53 PM 86.0 °F 86.3 °F 62.1 °F 44% 29.89 in 10.0 mi NW 5.8 mph - N/A   Scattered Clouds
4:53 PM 82.9 °F 84.4 °F 64.0 °F 53% 29.89 in 10.0 mi SE 4.6 mph - N/A   Clear
5:53 PM 80.1 °F 82.7 °F 68.0 °F 67% 29.90 in 10.0 mi SSE 5.8 mph - N/A   Scattered Clouds
6:53 PM 79.0 °F - 68.0 °F 69% 29.92 in 10.0 mi SSE 5.8 mph - N/A   Scattered Clouds
7:53 PM 78.1 °F - 68.0 °F 71% 29.93 in 10.0 mi South 3.5 mph - N/A   Partly Cloudy
8:53 PM 78.1 °F - 66.9 °F 68% 29.94 in 10.0 mi WNW 8.1 mph - N/A   Mostly Cloudy
9:53 PM 77.0 °F - 62.1 °F 60% 29.96 in 10.0 mi NW 10.4 mph - N/A   Overcast
11:53 PM 73.0 °F - 63.0 °F 71% 29.94 in 10.0 mi WNW 8.1 mph - N/A   Clear